QPF
0.00 0.00 0.00 0.00 0.00 0.00 0.00 0.00 0.00 0.00 0.00 0.00 0.00 0.00 0.00 0.00 0.00 0.00 0.00 0.03 0.11 0.10 0.04 0.00 0.01 0.00 0.00 0.00 0.05 0.03 0.00 0.01 0.00 0.00 0.02 0.05 0.05 0.14 0.43 0.22 0.16 0.07 0.13
0.00 0.00 0.00 0.00 0.00 0.00 0.00 0.00 0.00 0.00 0.00 0.00 0.00 0.00 0.00 0.00 0.00 0.00 0.02 0.02 0.00 0.01 0.01 0.00 0.00 0.00 0.02 0.00 0.00 0.07 0.10 0.02 0.00 0.01 0.03 0.06 0.07 0.07 0.19 0.34 0.36 0.16 0.19
0.00 0.00 0.00 0.00 0.00 0.00 0.00 0.00 0.00 0.00 0.00 0.00 0.00 0.00 0.00 0.00 0.00 0.04 0.09 0.08 0.03 0.00 0.00 0.00 0.00 0.00 0.01 0.08 0.16 0.16 0.04 0.00 0.00 0.01 0.03 0.06 0.08 0.07 0.14 0.42 0.41 0.17 0.20
0.00 0.00 0.00 0.00 0.00 0.00 0.00 0.00 0.00 0.00 0.00 0.00 0.00 0.00 0.00 0.00 0.00 0.01 0.04 0.06 0.02 0.00 0.00 0.00 0.00 0.04 0.03 0.07 0.15 0.05 0.01 0.01 0.00 0.00 0.01 0.06 0.07 0.13 0.14 0.35 0.48 0.16 0.16
0.00 0.00 0.00 0.00 0.00 0.00 0.00 0.00 0.00 0.00 0.00 0.00 0.00 0.00 0.00 0.00 0.00 0.01 0.07 0.06 0.00 0.00 0.00 0.03 0.05 0.09 0.07 0.06 0.03 0.03 0.01 0.00 0.00 0.00 0.00 0.03 0.08 0.08 0.11 0.21 0.20 0.09 0.12
0.00 0.00 0.00 0.00 0.00 0.00 0.00 0.00 0.00 0.00 0.00 0.00 0.00 0.00 0.00 0.00 0.00 0.02 0.05 0.00 0.00 0.00 0.00 0.02 0.03 0.06 0.08 0.08 0.04 0.06 0.03 0.00 0.00 0.00 0.00 0.01 0.03 0.04 0.06 0.07 0.06 0.04 0.05
0.00 0.00 0.00 0.00 0.00 0.00 0.00 0.00 0.00 0.00 0.00 0.00 0.00 0.00 0.00 0.00 0.00 0.01 0.03 0.00 0.00 0.00 0.00 0.00 0.00 0.01 0.02 0.01 0.02 0.07 0.04 0.03 0.01 0.00 0.00 0.00 0.00 0.01 0.02 0.05 0.04 0.01 0.00
0.00 0.00 0.00 0.00 0.00 0.00 0.00 0.00 0.00 0.00 0.00 0.00 0.00 0.00 0.00 0.00 0.00 0.00 0.00 0.00 0.00 0.00 0.00 0.00 0.00 0.00 0.00 0.00 0.00 0.01 0.01 0.01 0.02 0.01 0.00 0.00 0.00 0.01 0.01 0.00 0.00 0.00 0.00
0.00 0.00 0.00 0.00 0.00 0.00 0.00 0.00 0.00 0.00 0.00 0.00 0.00 0.00 0.00 0.00 0.00 0.00 0.00 0.00 0.00 0.00 0.00 0.00 0.00 0.00 0.00 0.01 0.00 0.00 0.01 0.03 0.05 0.03 0.01 0.00 0.00 0.00 0.00 0.00 0.00 0.00 0.00
0.00 0.00 0.00 0.00 0.00 0.00 0.00 0.00 0.00 0.00 0.00 0.00 0.00 0.00 0.00 0.00 0.00 0.00 0.00 0.00 0.00 0.00 0.00 0.00 0.00 0.00 0.00 0.00 0.00 0.00 0.00 0.00 0.00 0.01 0.00 0.00 0.00 0.00 0.00 0.00 0.00 0.00 0.00
0.00 0.00 0.00 0.00 0.00 0.00 0.00 0.00 0.01 0.00 0.00 0.01 0.01 0.00 0.00 0.00 0.00 0.00 0.00 0.00 0.00 0.00 0.00 0.00 0.00 0.00 0.00 0.00 0.00 0.00 0.00 0.00 0.00 0.00 0.00 0.00 0.00 0.00 0.00 0.00 0.00 0.00 0.00
0.00 0.00 0.00 0.00 0.00 0.00 0.00 0.00 0.06 0.00 0.00 0.00 0.00 0.00 0.00 0.00 0.00 0.00 0.00 0.00 0.00 0.00 0.00 0.00 0.00 0.00 0.00 0.00 0.00 0.00 0.00 0.00 0.00 0.00 0.00 0.00 0.00 0.00 0.00 0.00 0.00 0.00 0.00
0.00 0.00 0.00 0.00 0.00 0.00 0.00 0.00 0.01 0.00 0.00 0.00 0.00 0.00 0.00 0.00 0.00 0.00 0.00 0.00 0.00 0.00 0.00 0.00 0.00 0.00 0.00 0.00 0.00 0.00 0.00 0.00 0.00 0.00 0.00 0.00 0.00 0.00 0.00 0.00 0.00 0.00 0.00
0.00 0.00 0.00 0.00 0.00 0.00 0.00 0.00 0.00 0.00 0.00 0.00 0.00 0.00 0.00 0.00 0.00 0.00 0.00 0.00 0.00 0.00 0.00 0.00 0.00 0.00 0.00 0.00 0.00 0.00 0.00 0.00 0.00 0.00 0.00 0.00 0.00 0.00 0.00 0.00 0.00 0.00 0.00
0.00 0.00 0.00 0.00 0.00 0.00 0.00 0.00 0.00 0.00 0.00 0.00 0.00 0.00 0.00 0.00 0.00 0.00 0.00 0.00 0.00 0.00 0.00 0.00 0.00 0.00 0.00 0.00 0.00 0.00 0.00 0.00 0.00 0.00 0.00 0.00 0.00 0.00 0.00 0.00 0.00 0.00 0.00
0.00 0.00 0.00 0.00 0.00 0.00 0.00 0.00 0.00 0.00 0.00 0.00 0.00 0.00 0.00 0.00 0.00 0.00 0.00 0.00 0.00 0.00 0.00 0.00 0.00 0.00 0.00 0.00 0.00 0.00 0.00 0.00 0.00 0.00 0.00 0.00 0.00 0.00 0.00 0.00 0.00 0.00 0.00
0.00 0.00 0.00 0.00 0.00 0.00 0.00 0.00 0.00 0.00 0.00 0.00 0.00 0.00 0.00 0.00 0.00 0.00 0.00 0.00 0.00 0.00 0.00 0.00 0.00 0.00 0.00 0.00 0.00 0.00 0.00 0.00 0.00 0.00 0.00 0.00 0.00 0.00 0.00 0.00 0.00 0.00 0.00
0.00 0.00 0.00 0.00 0.00 0.00 0.00 0.00 0.00 0.00 0.00 0.00 0.00 0.00 0.00 0.00 0.00 0.00 0.00 0.00 0.00 0.00 0.00 0.00 0.00 0.00 0.00 0.00 0.00 0.00 0.00 0.00 0.00 0.00 0.00 0.00 0.00 0.00 0.00 0.00 0.00 0.00 0.00
0.00 0.00 0.00 0.00 0.00 0.00 0.00 0.00 0.00 0.00 0.00 0.00 0.00 0.00 0.00 0.00 0.00 0.00 0.00 0.00 0.00 0.00 0.00 0.00 0.00 0.00 0.00 0.00 0.00 0.00 0.00 0.00 0.00 0.00 0.00 0.00 0.00 0.00 0.00 0.00 0.00 0.00 0.00
0.00 0.00 0.00 0.00 0.00 0.00 0.00 0.00 0.00 0.00 0.00 0.00 0.00 0.00 0.00 0.00 0.00 0.00 0.00 0.00 0.00 0.00 0.00 0.00 0.00 0.00 0.00 0.00 0.00 0.00 0.00 0.00 0.00 0.00 0.00 0.00 0.00 0.00 0.00 0.00 0.00 0.00 0.00
0.00 0.00 0.00 0.00 0.00 0.00 0.00 0.00 0.00 0.00 0.00 0.00 0.00 0.00 0.00 0.00 0.00 0.00 0.00 0.00 0.00 0.00 0.00 0.00 0.00 0.00 0.00 0.00 0.00 0.00 0.00 0.00 0.00 0.00 0.00 0.00 0.00 0.00 0.00 0.00 0.00 0.00 0.00
0.00 0.00 0.00 0.00 0.00 0.00 0.00 0.00 0.00 0.00 0.00 0.00 0.00 0.00 0.00 0.00 0.00 0.00 0.00 0.00 0.00 0.00 0.00 0.00 0.00 0.00 0.00 0.00 0.00 0.00 0.00 0.00 0.00 0.00 0.00 0.00 0.00 0.00 0.00 0.00 0.00 0.00 0.00
0.00 0.00 0.00 0.00 0.00 0.00 0.00 0.00 0.00 0.00 0.00 0.00 0.00 0.00 0.00 0.00 0.00 0.00 0.00 0.00 0.00 0.00 0.00 0.00 0.00 0.00 0.00 0.00 0.00 0.00 0.00 0.00 0.00 0.00 0.00 0.00 0.00 0.00 0.00 0.00 0.00 0.00 0.00
0.00 0.00 0.00 0.00 0.00 0.00 0.00 0.00 0.00 0.00 0.00 0.00 0.00 0.00 0.00 0.00 0.00 0.00 0.00 0.00 0.00 0.00 0.00 0.00 0.00 0.00 0.00 0.00 0.00 0.00 0.00 0.00 0.00 0.00 0.00 0.00 0.00 0.00 0.00 0.00 0.00 0.00 0.00
0.00 0.00 0.00 0.00 0.00 0.00 0.00 0.00 0.00 0.00 0.00 0.00 0.00 0.00 0.00 0.00 0.00 0.00 0.00 0.00 0.00 0.00 0.00 0.00 0.00 0.00 0.00 0.00 0.00 0.00 0.00 0.00 0.00 0.00 0.00 0.00 0.00 0.00 0.00 0.00 0.00 0.00 0.00
0.01 0.00 0.00 0.00 0.00 0.00 0.00 0.00 0.00 0.00 0.00 0.00 0.00 0.00 0.00 0.00 0.00 0.00 0.00 0.00 0.00 0.00 0.00 0.00 0.00 0.00 0.00 0.00 0.00 0.00 0.00 0.00 0.00 0.00 0.00 0.00 0.00 0.00 0.00 0.00 0.00 0.00 0.00
MSLP
1003.01 1003.47 1003.89 1004.32 1004.67 1005.15 1005.49 1005.82 1006.11 1006.35 1006.40 1006.62 1006.64 1006.77 1006.76 1006.81 1006.73 1006.74 1006.62 1006.87 1007.14 1007.12 1007.30 1007.44 1007.66 1007.65 1007.97 1008.12 1008.26 1008.63 1009.04 1009.59 1010.85 1011.78 1012.02 1012.11 1012.18 1012.29 1012.67 1013.36 1014.42 1015.46 1016.23
1003.10 1003.56 1003.90 1004.40 1004.81 1005.30 1005.68 1005.86 1006.05 1006.24 1006.34 1006.40 1006.47 1006.50 1006.53 1006.72 1006.66 1006.65 1006.69 1006.79 1007.04 1007.03 1007.19 1007.51 1007.63 1007.61 1007.88 1008.08 1008.39 1008.85 1009.28 1009.87 1010.61 1011.48 1012.33 1012.57 1012.74 1013.28 1013.71 1014.48 1015.23 1016.15 1017.04
1003.12 1003.56 1003.97 1004.46 1004.89 1005.30 1005.63 1005.77 1005.92 1006.15 1006.18 1006.22 1006.28 1006.35 1006.57 1006.76 1006.75 1006.67 1006.72 1006.83 1006.98 1007.13 1007.24 1007.34 1007.53 1007.70 1007.94 1008.38 1008.70 1009.10 1009.76 1010.42 1011.11 1011.61 1012.46 1013.05 1013.50 1014.07 1014.64 1015.54 1016.02 1017.16 1018.15
1003.05 1003.36 1003.84 1004.39 1004.79 1005.18 1005.45 1005.77 1005.82 1006.08 1006.08 1006.03 1006.13 1006.44 1006.79 1006.87 1006.76 1006.66 1006.49 1006.72 1007.02 1007.19 1007.33 1007.36 1007.52 1007.75 1008.06 1008.46 1009.06 1009.50 1009.99 1010.71 1011.49 1012.08 1012.88 1013.42 1014.06 1015.06 1015.18 1016.00 1017.60 1018.17 1019.03
1002.88 1003.24 1003.85 1004.30 1004.82 1005.16 1005.54 1005.65 1005.66 1005.97 1006.01 1006.08 1006.35 1006.92 1007.09 1007.13 1007.10 1007.00 1006.86 1007.02 1007.36 1007.47 1007.51 1007.56 1007.64 1007.77 1008.14 1008.58 1008.98 1009.74 1010.22 1010.91 1011.61 1012.34 1013.07 1013.79 1014.45 1015.26 1015.79 1016.96 1017.65 1018.77 1019.82
1002.77 1003.28 1003.80 1004.33 1004.82 1005.17 1005.54 1005.73 1005.90 1005.96 1005.96 1006.36 1006.74 1007.28 1007.41 1007.50 1007.59 1007.37 1007.21 1007.36 1007.56 1007.56 1007.74 1007.97 1008.07 1008.31 1008.71 1008.97 1009.44 1009.96 1010.42 1010.65 1011.75 1012.56 1013.23 1013.78 1014.84 1015.64 1016.40 1017.00 1018.06 1019.22 1020.27
1002.75 1003.24 1003.77 1004.31 1004.80 1005.10 1005.43 1005.72 1005.98 1006.05 1006.18 1006.62 1007.12 1007.50 1007.69 1007.88 1007.78 1007.52 1007.45 1007.59 1007.79 1007.98 1008.11 1008.29 1008.52 1008.98 1009.25 1009.65 1010.00 1010.44 1011.00 1011.59 1012.00 1012.02 1013.13 1013.99 1014.83 1015.68 1016.22 1017.42 1018.41 1019.05 1019.66
1002.65 1003.15 1003.76 1004.15 1004.74 1005.04 1005.35 1005.73 1006.08 1006.26 1006.60 1007.03 1007.40 1007.73 1007.79 1008.08 1008.02 1007.79 1007.72 1007.93 1008.16 1008.28 1008.47 1008.73 1009.05 1009.44 1009.76 1009.98 1010.36 1010.97 1011.78 1012.53 1012.98 1013.25 1013.64 1014.46 1015.23 1016.02 1016.54 1017.25 1018.25 1019.14 1020.15
1002.55 1003.10 1003.68 1004.06 1004.68 1005.04 1005.42 1005.84 1006.09 1006.37 1006.79 1007.14 1007.42 1007.83 1008.00 1008.26 1008.32 1008.06 1008.09 1008.38 1008.60 1008.73 1009.02 1009.45 1009.63 1009.99 1010.31 1010.63 1010.88 1011.53 1012.37 1013.11 1013.75 1014.28 1014.76 1015.29 1016.22 1016.56 1016.95 1017.70 1018.61 1019.30 1020.43
1002.26 1002.93 1003.50 1004.02 1004.51 1004.97 1005.37 1005.84 1006.09 1006.35 1006.74 1007.17 1007.59 1007.82 1008.04 1008.39 1008.47 1008.31 1008.35 1008.68 1008.98 1009.13 1009.56 1010.12 1010.38 1010.69 1011.02 1011.39 1011.66 1012.20 1013.09 1013.94 1014.47 1015.43 1016.19 1016.58 1016.71 1017.12 1017.26 1017.37 1018.21 1019.19 1020.11
1002.02 1002.70 1003.45 1003.95 1004.41 1004.82 1005.34 1005.82 1006.09 1006.41 1006.80 1007.28 1007.79 1007.99 1008.28 1008.47 1008.67 1008.54 1008.59 1008.93 1009.26 1009.55 1010.02 1010.64 1011.18 1011.34 1011.62 1011.96 1012.39 1012.71 1013.54 1014.27 1015.05 1015.67 1016.40 1016.86 1017.02 1017.24 1017.85 1018.15 1018.54 1018.85 1019.39
1001.89 1002.58 1003.32 1003.81 1004.41 1004.94 1005.43 1005.98 1006.35 1006.64 1007.13 1007.60 1008.08 1008.37 1008.57 1008.79 1008.83 1008.76 1008.79 1009.11 1009.49 1009.74 1010.32 1010.92 1011.69 1011.93 1012.14 1012.45 1012.90 1013.36 1013.93 1014.55 1015.23 1015.91 1016.44 1017.03 1017.49 1017.93 1018.22 1018.43 1018.63 1018.90 1018.96
1001.92 1002.69 1003.33 1003.90 1004.47 1005.01 1005.56 1006.08 1006.69 1007.05 1007.42 1007.80 1008.09 1008.49 1008.85 1009.10 1009.16 1009.09 1009.08 1009.42 1009.69 1010.20 1010.67 1011.24 1011.92 1012.31 1012.64 1012.96 1013.28 1013.79 1014.15 1014.76 1015.28 1016.02 1016.65 1017.08 1017.28 1017.68 1018.10 1018.39 1018.63 1018.82 1019.03
1001.89 1002.71 1003.38 1003.98 1004.59 1005.14 1005.73 1006.21 1006.69 1007.05 1007.38 1007.71 1008.14 1008.54 1008.79 1009.10 1009.26 1009.39 1009.72 1009.88 1010.17 1010.77 1011.26 1011.91 1012.35 1012.80 1013.16 1013.47 1014.03 1014.16 1014.39 1014.85 1015.20 1015.69 1016.40 1016.94 1017.47 1017.95 1018.24 1018.34 1018.56 1018.86 1019.23
1001.71 1002.53 1003.28 1003.94 1004.53 1005.28 1006.00 1006.62 1006.66 1006.55 1006.61 1007.15 1007.56 1008.04 1008.50 1008.98 1009.18 1009.40 1009.64 1010.16 1010.63 1011.00 1011.62 1012.18 1012.54 1012.91 1013.37 1013.93 1014.29 1014.38 1014.55 1014.87 1015.34 1015.83 1016.40 1016.98 1017.33 1017.56 1017.90 1018.07 1018.17 1018.61 1018.95
1001.87 1002.52 1003.15 1003.87 1004.55 1005.09 1005.92 1006.72 1006.84 1006.71 1006.67 1006.93 1007.19 1007.55 1008.12 1008.49 1008.94 1009.35 1009.72 1010.12 1010.54 1010.98 1011.48 1012.05 1012.54 1012.86 1013.16 1013.65 1014.09 1014.49 1014.73 1014.97 1015.30 1015.72 1016.20 1016.40 1016.67 1017.05 1017.43 1017.65 1017.78 1018.24 1018.60
1001.52 1002.31 1003.01 1003.53 1004.28 1005.06 1005.77 1006.29 1006.66 1007.02 1006.83 1007.10 1007.23 1007.48 1007.83 1008.34 1008.92 1009.41 1009.84 1010.26 1010.69 1011.01 1011.39 1011.87 1012.21 1012.59 1013.00 1013.42 1013.76 1013.98 1014.23 1014.47 1014.74 1015.13 1015.47 1015.76 1016.20 1016.57 1016.87 1017.28 1017.59 1017.81 1018.21
1001.08 1001.70 1002.52 1003.16 1003.80 1004.57 1005.14 1005.75 1006.03 1006.54 1006.93 1007.45 1007.78 1008.02 1007.92 1008.33 1008.89 1009.35 1009.97 1010.58 1011.30 1011.16 1011.18 1011.49 1011.80 1012.16 1012.53 1012.96 1013.28 1013.48 1013.73 1014.06 1014.43 1014.71 1015.03 1015.26 1015.63 1015.85 1016.12 1016.46 1016.82 1017.06 1017.39
1000.65 1001.50 1001.94 1002.61 1003.20 1003.87 1004.62 1005.30 1005.71 1006.13 1006.53 1007.07 1007.95 1008.27 1008.63 1008.98 1009.41 1009.72 1009.80 1010.00 1010.43 1010.64 1010.71 1010.96 1011.06 1011.34 1011.68 1012.06 1012.39 1012.75 1013.06 1013.49 1013.74 1014.06 1014.34 1014.49 1014.64 1015.04 1015.27 1015.48 1015.88 1016.25 1016.67
1000.19 1000.71 1001.34 1002.06 1002.74 1003.45 1004.08 1004.77 1005.42 1005.87 1006.38 1006.80 1007.31 1007.74 1008.65 1009.30 1009.94 1010.16 1010.10 1009.84 1009.89 1009.89 1010.02 1010.23 1010.40 1010.59 1010.84 1011.18 1011.60 1011.94 1012.31 1012.73 1013.06 1013.25 1013.32 1013.42 1013.49 1013.72 1014.06 1014.37 1014.84 1015.33 1015.69
1000.04 1000.51 1000.82 1001.48 1002.13 1002.64 1003.27 1003.89 1004.42 1005.08 1005.67 1006.28 1006.60 1007.10 1007.27 1008.05 1008.64 1008.92 1009.15 1009.18 1009.13 1009.21 1009.35 1009.54 1009.72 1009.94 1010.17 1010.40 1010.71 1010.94 1011.19 1011.44 1011.59 1011.78 1012.05 1012.23 1012.48 1012.73 1012.79 1012.99 1013.46 1014.02 1014.58
999.81 1000.02 1000.46 1000.72 1001.32 1001.99 1002.44 1002.98 1003.57 1004.01 1004.56 1005.17 1005.88 1006.70 1007.17 1007.43 1007.52 1007.65 1007.85 1008.00 1008.07 1008.20 1008.40 1008.69 1008.89 1009.01 1009.15 1009.45 1009.84 1010.07 1010.21 1010.31 1010.34 1010.54 1010.73 1011.01 1011.46 1011.79 1012.01 1012.25 1012.58 1013.18 1013.72
999.72 999.93 1000.05 1000.17 1000.64 1001.17 1001.79 1002.13 1002.74 1003.24 1003.58 1004.04 1004.67 1005.55 1006.62 1006.77 1006.55 1006.61 1006.69 1006.77 1007.04 1007.23 1007.47 1007.77 1007.95 1008.09 1008.18 1008.33 1008.44 1008.75 1009.09 1009.10 1009.17 1009.54 1009.88 1010.13 1010.37 1010.65 1010.97 1011.30 1011.65 1012.18 1012.86
1000.25 999.97 999.88 1000.13 1000.38 1000.61 1001.14 1001.71 1001.80 1002.12 1002.58 1002.93 1003.43 1004.04 1004.76 1005.12 1005.21 1005.21 1005.29 1005.55 1005.92 1006.17 1006.42 1006.65 1006.83 1006.88 1006.97 1007.10 1007.17 1007.38 1007.48 1007.65 1007.89 1008.10 1008.44 1008.83 1009.19 1009.42 1009.57 1010.00 1010.42 1010.83 1011.39
1000.96 1000.56 1000.45 1000.27 1000.15 1000.44 1000.62 1000.77 1001.11 1001.33 1001.49 1001.82 1002.21 1002.57 1003.03 1003.45 1003.76 1003.85 1004.08 1004.44 1004.75 1005.05 1005.22 1005.34 1005.38 1005.42 1005.63 1005.83 1005.94 1006.02 1006.13 1006.48 1006.57 1006.75 1007.11 1007.48 1007.72 1008.00 1008.28 1008.62 1009.21 1009.81 1010.47
1001.72 1001.63 1001.15 1000.82 1000.64 1000.38 1000.32 1000.41 1000.46 1000.49 1000.56 1000.55 1000.71 1001.11 1001.46 1001.83 1002.03 1002.24 1002.57 1002.98 1003.25 1003.45 1003.69 1003.89 1003.91 1003.96 1004.03 1004.13 1004.21 1004.45 1004.82 1005.13 1005.50 1005.76 1005.94 1006.36 1006.66 1006.94 1007.20 1007.59 1007.92 1008.44 1009.05
Thickness
5693 5689 5685 5680 5675 5668 5664 5660 5656 5654 5652 5650 5650 5649 5647 5644 5642 5639 5637 5632 5627 5628 5625 5624 5622 5623 5621 5621 5622 5622 5621 5621 5613 5611 5613 5616 5619 5625 5619 5625 5621 5618 5617
5690 5686 5682 5676 5670 5665 5660 5657 5655 5652 5651 5651 5651 5651 5648 5644 5642 5640 5637 5634 5628 5627 5626 5623 5622 5623 5622 5622 5621 5620 5618 5617 5616 5612 5610 5613 5616 5617 5617 5617 5614 5611 5608
5688 5684 5679 5672 5667 5662 5657 5656 5654 5651 5651 5652 5652 5650 5647 5644 5642 5641 5638 5634 5630 5627 5625 5624 5622 5621 5622 5620 5619 5619 5616 5615 5612 5612 5609 5608 5610 5610 5610 5607 5606 5604 5598
5686 5682 5675 5668 5664 5660 5656 5653 5653 5651 5651 5653 5653 5650 5646 5643 5643 5641 5640 5637 5631 5628 5625 5624 5623 5622 5621 5620 5618 5617 5616 5613 5610 5609 5608 5607 5607 5604 5606 5602 5595 5595 5590
5685 5680 5673 5667 5662 5657 5653 5653 5653 5651 5651 5652 5650 5646 5644 5642 5640 5639 5639 5635 5631 5628 5626 5625 5625 5624 5623 5621 5619 5616 5616 5614 5612 5610 5609 5607 5606 5604 5604 5598 5596 5590 5586
5684 5677 5671 5665 5659 5655 5652 5650 5649 5650 5650 5648 5647 5644 5642 5640 5634 5636 5639 5636 5633 5632 5628 5625 5624 5622 5617 5615 5614 5613 5615 5618 5613 5611 5610 5609 5605 5602 5598 5597 5594 5589 5586
5681 5676 5670 5664 5658 5655 5653 5650 5648 5648 5648 5646 5644 5642 5641 5638 5635 5636 5639 5638 5635 5633 5630 5628 5625 5620 5617 5613 5609 5609 5609 5610 5610 5615 5610 5609 5606 5603 5601 5596 5593 5594 5593
5681 5676 5669 5665 5658 5656 5652 5648 5646 5646 5644 5642 5641 5640 5642 5639 5636 5636 5639 5639 5636 5635 5633 5629 5626 5623 5620 5616 5614 5611 5607 5606 5606 5606 5607 5607 5605 5603 5602 5601 5599 5595 5591
5681 5676 5670 5665 5658 5656 5651 5647 5646 5644 5642 5641 5641 5641 5642 5640 5635 5638 5640 5638 5637 5636 5633 5630 5629 5626 5621 5619 5619 5617 5612 5608 5605 5605 5603 5604 5601 5602 5603 5602 5598 5596 5590
5684 5678 5673 5667 5661 5656 5653 5648 5646 5644 5643 5642 5640 5641 5641 5641 5637 5639 5641 5639 5637 5636 5632 5628 5628 5626 5622 5622 5621 5622 5617 5611 5608 5601 5598 5597 5600 5602 5606 5607 5605 5600 5594
5689 5682 5675 5670 5664 5659 5652 5649 5647 5644 5641 5640 5638 5640 5641 5642 5640 5640 5642 5640 5637 5635 5632 5628 5625 5624 5623 5623 5622 5622 5617 5613 5607 5605 5602 5602 5604 5606 5604 5604 5603 5604 5602
5691 5684 5677 5672 5668 5659 5653 5649 5645 5642 5638 5636 5636 5637 5639 5640 5640 5640 5642 5641 5639 5638 5635 5630 5623 5622 5624 5625 5624 5619 5616 5615 5612 5609 5608 5605 5604 5604 5604 5604 5604 5604 5605
5690 5682 5678 5674 5670 5662 5656 5650 5644 5640 5638 5637 5637 5638 5638 5639 5640 5640 5640 5639 5639 5638 5635 5631 5625 5624 5624 5625 5624 5622 5622 5619 5618 5614 5610 5608 5610 5609 5607 5606 5604 5604 5604
5690 5683 5679 5675 5669 5664 5660 5654 5646 5642 5640 5639 5639 5639 5640 5641 5642 5642 5640 5640 5638 5636 5632 5629 5628 5627 5627 5626 5624 5625 5626 5622 5620 5619 5615 5612 5610 5607 5606 5607 5606 5605 5605
5693 5686 5681 5677 5673 5667 5660 5657 5653 5652 5651 5648 5647 5647 5646 5644 5645 5646 5645 5643 5640 5639 5636 5634 5633 5633 5631 5628 5626 5627 5627 5626 5623 5620 5617 5614 5613 5612 5611 5610 5612 5609 5609
5693 5688 5684 5679 5674 5671 5665 5659 5652 5654 5653 5654 5655 5655 5653 5654 5648 5648 5648 5646 5643 5643 5642 5640 5637 5636 5636 5633 5630 5628 5628 5627 5625 5622 5620 5621 5620 5619 5616 5615 5615 5612 5609
5696 5691 5686 5684 5679 5673 5669 5667 5664 5661 5660 5659 5659 5659 5660 5659 5654 5652 5650 5648 5647 5648 5647 5645 5644 5642 5640 5637 5636 5636 5634 5633 5632 5630 5629 5628 5625 5623 5618 5618 5615 5612 5609
5700 5694 5691 5688 5685 5679 5676 5673 5673 5671 5669 5666 5659 5661 5662 5660 5657 5655 5652 5650 5647 5650 5652 5650 5648 5646 5644 5643 5642 5641 5640 5639 5637 5635 5633 5632 5629 5628 5625 5623 5621 5619 5616
5704 5698 5697 5693 5691 5687 5682 5678 5677 5675 5674 5672 5664 5663 5659 5658 5656 5654 5656 5661 5658 5657 5656 5655 5655 5654 5652 5651 5650 5647 5645 5643 5642 5640 5637 5637 5635 5632 5630 5629 5625 5620 5616
5707 5704 5702 5697 5693 5689 5687 5683 5680 5678 5675 5675 5674 5675 5662 5660 5658 5656 5656 5662 5663 5664 5664 5662 5661 5660 5658 5656 5654 5653 5651 5647 5645 5644 5644 5642 5642 5641 5638 5635 5632 5629 5625
5708 5704 5705 5701 5696 5694 5691 5688 5687 5684 5682 5679 5680 5679 5673 5677 5671 5669 5667 5666 5668 5669 5668 5666 5665 5664 5663 5662 5661 5659 5658 5656 5655 5654 5652 5652 5649 5646 5644 5643 5641 5637 5632
5708 5707 5704 5704 5701 5697 5695 5693 5690 5690 5688 5685 5684 5681 5670 5681 5679 5678 5676 5675 5674 5675 5674 5673 5671 5671 5671 5669 5665 5664 5663 5663 5662 5661 5659 5657 5652 5649 5647 5646 5643 5637 5631
5705 5705 5706 5707 5704 5699 5695 5697 5694 5691 5691 5690 5688 5685 5674 5678 5681 5681 5680 5681 5680 5679 5678 5676 5675 5675 5675 5674 5673 5671 5668 5668 5668 5665 5660 5655 5652 5649 5646 5644 5642 5637 5630
5696 5700 5703 5702 5702 5703 5699 5695 5696 5694 5694 5694 5692 5689 5684 5683 5685 5685 5685 5685 5683 5683 5682 5681 5680 5679 5679 5678 5677 5675 5674 5672 5670 5668 5666 5661 5657 5653 5652 5648 5645 5641 5637
5685 5690 5692 5695 5699 5698 5699 5700 5698 5697 5698 5697 5697 5696 5691 5689 5689 5689 5687 5686 5685 5684 5684 5684 5685 5684 5681 5679 5679 5678 5677 5675 5674 5671 5667 5664 5662 5658 5655 5652 5647 5639 5631
5669 5674 5680 5685 5689 5693 5696 5697 5698 5699 5701 5703 5703 5702 5700 5697 5696 5695 5693 5691 5690 5689 5688 5688 5689 5689 5688 5687 5686 5684 5681 5678 5675 5672 5667 5663 5661 5658 5655 5652 5650 5645 5636